#timestamp,LO_Frequency,Hit 
1499090415.6,286046997.3,N
1499090435.4,286046997.1,N
1499090455.3,286046997.1,N
1499090475.1,286046997.8,N
1499090495.9,286046997.9,N
1499090515.7,286046997.6,N
1499090535.5,286046995.3,N
1499090555.4,286046997.9,N
1499090575.2,286046996.1,N
1499090595.0,286046995.4,N
1499090595.9,286046995.4,N
1499090615.8,286046996.1,N
1499090635.6,286046993.7,Y
1499090655.5,286046999.6,N
1499090675.3,286046998.3,N
1499090695.1,286046998.4,N
1499090715.9,286046997.0,N
1499090735.7,286046996.9,N
1499090755.5,286046997.0,N
1499090775.4,286046999.2,N
1499090795.2,286046999.2,N
1499090815.1,286046997.0,N
1499090816.0,286046997.0,N
1499090835.8,286046996.5,N
1499090855.6,286046996.9,N
1499090875.5,286046996.6,N
1499090895.3,286046996.9,N
1499090915.1,286046997.5,N
1499090935.9,286046996.6,N
1499090955.7,286046997.1,N
1499090975.6,286046997.1,N
1499090995.4,286046997.2,N
1499091015.2,286046999.5,N
1499091035.1,286046999.3,N
1499091036.0,286046999.3,N
1499091055.8,286046998.6,N
1499091075.6,286046996.9,N
1499091095.5,286046997.7,N
1499091115.3,286046997.5,N
1499091135.2,286046997.8,N
1499091155.9,286046996.8,N
1499091175.7,286046997.0,N
1499091195.6,286046996.7,N
1499091215.4,286046997.3,N
1499091235.2,286046997.4,N
1499091255.1,286046997.4,N
1499091256.0,286046997.4,N
1499091275.8,286046997.5,N
1499091295.7,286046997.5,N
1499091315.5,286046996.5,N
1499091335.3,286046996.6,N
1499091355.2,286046997.1,N
1499091375.9,286046999.4,N
1499091395.7,286046999.6,N
1499091415.6,286046996.5,N
1499091435.4,286046996.5,N
1499091455.3,286046997.4,N
1499091475.1,286046997.1,N
1499091476.0,286046997.1,N
1499091495.8,286046996.9,N
1499091515.7,286046996.7,N
1499091535.5,286046997.4,N
1499091555.3,286046997.2,N
1499091575.2,286046996.8,N
1499091595.0,286046996.8,N
1499091595.9,286046996.8,N
1499091615.8,286046997.0,N
1499091635.6,286046996.9,N
1499091655.4,286046995.4,Y
1499091675.3,286046999.9,N
1499091695.1,286047001.2,N
1499091715.8,286046999.9,N
1499091735.7,286047000.3,N
1499091755.5,286046999.9,N
1499091775.4,286046999.8,N
1499091795.2,286047000.1,N
1499091815.0,286047000.6,N
1499091815.9,286047000.6,N
1499091835.8,286047000.5,N
1499091855.6,286047000.6,N
1499091875.4,286047000.9,N
1499091895.3,286046998.1,N
1499091915.1,286046998.2,N
1499091935.9,286047001.2,N
1499091955.7,286046999.9,N
1499091975.5,286047002.7,N
1499091995.4,286047000.5,N
1499092015.2,286047000.4,N
1499092035.0,286046999.7,N
1499092035.9,286046999.7,N
1499092055.8,286047000.3,N
1499092075.6,286047000.3,N
1499092095.5,286047000.6,N
1499092115.3,286047000.3,N
1499092135.1,286047001.1,N
1499092155.9,286046999.9,N
1499092175.7,286047001.2,N
1499092195.5,286046998.1,N
1499092215.4,286047000.4,N
1499092235.2,286046998.2,N
1499092255.1,286047000.9,N
1499092256.0,286047000.9,N
1499092275.8,286047001.0,N
1499092295.6,286047000.2,N
1499092315.5,286047002.3,N
1499092335.3,286047000.5,N
1499092355.1,286047002.1,N
1499092375.9,286046998.9,N
1499092395.7,286047000.6,N
1499092415.6,286047000.6,N
1499092435.4,286047001.0,N
1499092455.2,286046998.2,N
1499092475.1,286047000.5,N
1499092476.0,286047000.5,N
1499092495.8,286047000.0,N
1499092515.6,286046999.9,N
1499092535.5,286047000.9,N
1499092555.3,286047001.0,N
1499092575.2,286046999.8,N
1499092595.9,286047000.0,N
1499092615.7,286046999.9,N
1499092635.6,286047000.9,N
1499092655.4,286046999.9,N
1499092675.2,286046999.9,N
1499092695.1,286047000.3,N
1499092696.0,286047000.3,N
1499092715.8,286047000.0,N
1499092735.7,286047001.0,N
1499092755.5,286046998.6,N
1499092775.3,286047001.0,N
1499092795.2,286046998.9,N
1499092815.0,286046999.0,N
1499092815.9,286046999.0,N
1499092835.7,286046999.3,N
1499092855.6,286047001.2,N
1499092875.4,286046998.3,N
1499092895.3,286046998.1,N
1499092915.1,286047001.1,N
1499092916.0,286047001.1,N
1499092935.8,286046998.2,N
1499092955.7,286046998.5,N
1499092975.5,286047001.2,N
1499092995.3,286047001.1,N
1499093015.2,286046998.3,N
1499093065.0,286046999.0,Y
1499093075.9,286046998.6,N
1499093095.7,286046998.1,N
1499093115.5,286047000.1,N
1499093135.4,286047000.5,N
1499093155.2,286046999.8,N
1499093175.0,286047000.7,N
1499093176.0,286047000.7,N
1499093195.8,286047001.1,N
1499093215.6,286047001.1,N
1499093235.5,286046998.2,N
1499093255.3,286047000.6,N
1499093275.1,286047000.4,N
1499093295.9,286047000.8,N
1499093315.7,286046999.9,N
1499093335.5,286047000.7,N
1499093355.4,286046995.5,Y
1499093375.2,286047001.0,N
1499093395.1,286047004.0,Y
1499093396.0,286047004.0,Y
1499093415.8,286047000.9,N
1499093435.6,286046998.2,N
1499093455.5,286046998.1,N
1499093475.3,286046998.4,N
1499093495.2,286046998.6,N
1499093515.9,286046997.1,N
1499093535.7,286046998.8,N
1499093555.6,286046999.5,N
1499093575.4,286046999.5,N
1499093595.2,286046999.1,N
1499093615.1,286046999.3,N
1499093616.0,286046999.3,N
1499093635.8,286046999.2,N
1499093655.7,286046998.7,N
1499093675.5,286046998.9,N
1499093695.3,286047001.1,N
1499093715.2,286046999.0,N
1499093735.0,286046998.4,N
1499093735.9,286046998.4,N
1499093755.7,286046998.6,N
1499093775.6,286047000.6,N
1499093795.4,286046999.8,N
1499093815.3,286046996.7,N
1499093835.1,286047001.2,N
1499093836.0,286047001.2,N
1499093855.8,286047001.2,N
1499093875.7,286046998.7,N
1499093895.5,286046999.1,N
1499093915.3,286046999.4,N
1499093935.2,286046996.9,N
1499093955.0,286046998.7,N
1499093955.9,286046998.7,N
1499093975.8,286046999.0,N
1499093995.6,286047000.8,N
